2022-047AB (52419 NORAD) Tracking and Keplerian Element Data
This shows tracking and keplerian element data for the satellite.
Feedback or suggestion? Click here.
Element | Value |
Catalog | 52419 |
Name | 2022-047AB |
Epoch Orbit | 813 |
Epoch Day | 167.03183965 |
Epoch Year | 2022 |
RAAN | 251.9243 |
Inclination | 97.4493 |
Eccentricity | 0.0009957 |
Argument of Perigee | 175.8233 |
Mean Anonmoly | 184.3083 |
Mean Motion | 15.13106717 |
Decay Rate | 8.933E-05 |
L1 | 1 52419U 22047AB 22167.03183965 .00008933 00000+0 50735-3 0 9994 |
L2 | 2 52419 97.4493 251.9243 0009957 175.8233 184.3083 15.13106717 8135 |
Live tracking and technical data element details for 2022-047AB (NORAD 52419). 2022-047AB can be tracked NOW for your location showing map with azimuth and elevation plus other details from your city location.
Track the satellite on the map from your city or location and see movement details for azimuth, elevation, latitude, longitude, range, height, and movement on the map or in text.
IsCatalogInMostPopularTable: catalog: 52419, numindb: 1
Update: records affected: 1
GetName: 52419 2022-047AB
Hit Count: updated at: Sat, 25 Jun 2022 05:30:11 GMT